Flag Weather past 2 weeks in Bastia, Corsica, France

Now
70 °F

Passing clouds.


Feels Like: 70 °F
Forecast: 54 / 66 °F
Wind: 6 mph from East

Location: Bastia Airport

Current Time: Oct 31, 2014 at 1:52:52 PM

Latest Report: Oct 31, 2014 at 1:30 PM


Visibility: N/A

Pressure: 30.21 "Hg

Humidity: 43%

Dew point: 46 °F

Location of BastiaLocation

Historic Weather in Bastia — Graph

°F

Bastia temperature yesterday

Maximum temperature yesterday: 70 °F (at 12:00 PM)
Minimum temperature yesterday: 52 °F (at 11:00 PM)
Average temperature yesterday: 60 °F

Past Weeks' High & Low Weather Summary

 TemperatureHumidityPressure
High81 °F (Oct 17, 1:35 PM)94% (Oct 17, 2:30 AM)30.27 "Hg (Oct 17, 2:30 AM)
Low48 °F (Oct 27, 6:00 AM)16% (Oct 22, 2:00 PM)29.62 "Hg (Oct 22, 4:30 AM)
Average64 °F66%30.06 "Hg
* Reported Oct 16 1:00 PM — Oct 31 12:30 PM, Bastia, Weather by CustomWeather, © 2014

Note: Actual official high and low records may vary slightly from our data, if they occured in-between our weather recording intervals... More about our weather records

Advertising

Bastia weather history for previous 24 hours

 ConditionsComfort  
Time TempWeatherWind HumidityBarometerVisibility
12:30 PM
Oct 31
70 °FPassing clouds.7 mph43%30.24 "HgN/A
12:00 PM70 °FPassing clouds.6 mph46%30.27 "HgN/A
11:30 AM70 °FPassing clouds.6 mph46%30.27 "HgN/A
11:00 AM70 °FPassing clouds.6 mph46%30.27 "HgN/A
10:30 AM68 °FSunny.2 mph46%30.27 "Hg10 mi
10:00 AM66 °FPassing clouds.5 mph49%30.27 "HgN/A
9:30 AM63 °FSunny.6 mph59%30.27 "Hg10 mi
9:00 AM61 °FSunny.6 mph63%30.27 "Hg10 mi
8:30 AM57 °FSunny.No wind72%30.24 "Hg10 mi
8:00 AM54 °FSunny.5 mph77%30.24 "Hg10 mi
7:30 AM50 °FSunny.5 mph88%30.24 "Hg10 mi
7:00 AM50 °FSunny.3 mph82%30.24 "Hg10 mi
6:30 AM50 °FPassing clouds.5 mph82%30.24 "HgN/A
6:00 AM50 °FClear.5 mph88%30.24 "Hg10 mi
5:30 AM50 °FClear.5 mph82%30.24 "Hg10 mi
5:17 AM50 °FClear.3 mph82%30.24 "Hg10 mi
4:30 AM50 °FClear.5 mph82%30.24 "Hg10 mi
4:00 AM50 °FClear.5 mph88%30.24 "Hg10 mi
3:30 AM50 °FClear.5 mph88%30.24 "Hg10 mi
3:00 AM50 °FClear.5 mph88%30.24 "Hg10 mi
2:30 AM50 °FClear.6 mph88%30.24 "Hg10 mi
2:00 AM52 °FClear.6 mph82%30.24 "HgN/A
1:30 AM52 °FClear.6 mph82%30.24 "HgN/A
1:00 AM52 °FClear.6 mph88%30.24 "HgN/A
12:30 AM52 °FClear.5 mph88%30.24 "HgN/A
12:00 AM52 °FClear.5 mph88%30.24 "HgN/A
11:30 PM
Oct 30
52 °FPassing clouds.5 mph88%30.24 "HgN/A
11:00 PM52 °FPassing clouds.5 mph88%30.24 "HgN/A
10:30 PM54 °FPassing clouds.5 mph82%30.24 "HgN/A
10:00 PM54 °FPassing clouds.5 mph88%30.24 "HgN/A
9:30 PM55 °FPassing clouds.3 mph82%30.24 "HgN/A
9:00 PM55 °FPassing clouds.3 mph82%30.24 "HgN/A
8:30 PM55 °FPassing clouds.5 mph82%30.21 "HgN/A
8:00 PM55 °FPassing clouds.3 mph82%30.21 "HgN/A
7:30 PM55 °FPassing clouds.3 mph82%30.21 "HgN/A
7:00 PM57 °FPassing clouds.3 mph82%30.21 "HgN/A
6:30 PM59 °FPassing clouds.3 mph77%30.21 "HgN/A
6:00 PM63 °FPassing clouds.3 mph68%30.21 "HgN/A
5:30 PM63 °FPassing clouds.5 mph68%30.18 "HgN/A
5:00 PM64 °FPassing clouds.6 mph64%30.18 "HgN/A
4:30 PM66 °FPassing clouds.7 mph60%30.18 "HgN/A
4:00 PM66 °FPassing clouds.7 mph60%30.18 "HgN/A
3:30 PM66 °FPassing clouds.8 mph60%30.18 "HgN/A
3:00 PM68 °FPassing clouds.9 mph56%30.18 "HgN/A
2:30 PM68 °FPassing clouds.9 mph56%30.18 "HgN/A
2:00 PM70 °FPassing clouds.9 mph50%30.18 "HgN/A
1:30 PM70 °FPassing clouds.9 mph50%30.18 "HgN/A
1:00 PM70 °FPassing clouds.9 mph50%30.18 "HgN/A
Weather by CustomWeather, © 2014

See weather overviewHow to use our weather pages